Time,TemperatureF,DewpointF,PressureIn,WindDirection,WindDirectionDegrees,WindSpeedMPH,WindSpeedGustMPH,Humidity,HourlyPrecipIn,Conditions,Clouds,dailyrainin,SolarRadiationWatts/m^2,SoftwareType,DateUTC
2013-05-01 05:01:00,48.6,41.4,28.68,East,96,7.0,0.0,76,0.00,,,0.00,0,WeatherTracker,2013-05-01 10:01:00,
2013-05-01 05:02:00,48.6,41.4,28.68,ENE,69,9.0,0.0,76,0.00,,,0.00,0,WeatherTracker,2013-05-01 10:02:00,
2013-05-01 05:03:00,48.6,41.4,28.68,ENE,75,8.0,0.0,76,0.00,,,0.00,0,WeatherTracker,2013-05-01 10:03:00,
2013-05-01 05:08:00,48.5,41.3,28.68,East,80,10.0,0.0,76,0.00,,,0.00,0,WeatherTracker,2013-05-01 10:08:00,
2013-05-01 05:13:00,48.4,41.5,28.68,ENE,77,9.0,0.0,77,0.00,,,0.00,0,WeatherTracker,2013-05-01 10:13:00,
2013-05-01 05:18:00,48.3,41.4,28.69,NE,40,5.0,0.0,77,0.00,,,0.00,0,WeatherTracker,2013-05-01 10:18:00,
2013-05-01 05:23:00,48.1,41.6,28.69,NE,52,5.0,0.0,78,0.00,,,0.00,0,WeatherTracker,2013-05-01 10:23:00,
2013-05-01 05:28:00,47.9,41.7,28.69,ENE,63,4.0,0.0,79,0.00,,,0.00,0,WeatherTracker,2013-05-01 10:28:00,
2013-05-01 05:33:00,47.7,41.5,28.71,East,88,7.0,0.0,79,0.00,,,0.00,0,WeatherTracker,2013-05-01 10:33:00,
2013-05-01 05:38:00,47.5,41.3,28.71,ENE,77,11.0,0.0,79,0.00,,,0.00,0,WeatherTracker,2013-05-01 10:38:00,
2013-05-01 05:43:00,47.3,41.1,28.71,ENE,69,11.0,0.0,79,0.00,,,0.00,0,WeatherTracker,2013-05-01 10:43:00,
2013-05-01 05:48:00,47.2,41.0,28.69,ENE,65,11.0,0.0,79,0.00,,,0.00,0,WeatherTracker,2013-05-01 10:48:00,
2013-05-01 05:53:00,47.0,41.2,28.69,ENE,69,8.0,0.0,80,0.00,,,0.00,0,WeatherTracker,2013-05-01 10:53:00,
2013-05-01 05:58:00,46.9,41.1,28.69,East,79,13.0,0.0,80,0.00,,,0.00,0,WeatherTracker,2013-05-01 10:58:00,
2013-05-01 06:03:00,46.9,41.1,28.69,ENE,57,14.0,0.0,80,0.00,,,0.00,0,WeatherTracker,2013-05-01 11:03:00,
2013-05-01 06:08:00,46.8,41.0,28.69,ENE,73,6.0,0.0,80,0.00,,,0.00,0,WeatherTracker,2013-05-01 11:08:00,
2013-05-01 06:13:00,46.8,41.3,28.69,ENE,67,6.0,0.0,81,0.00,,,0.00,0,WeatherTracker,2013-05-01 11:13:00,
2013-05-01 06:18:00,46.7,41.2,28.71,ENE,72,6.0,0.0,81,0.00,,,0.00,0,WeatherTracker,2013-05-01 11:18:00,
2013-05-01 06:23:00,46.7,41.2,28.71,ENE,77,10.0,0.0,81,0.00,,,0.00,0,WeatherTracker,2013-05-01 11:23:00,
2013-05-01 06:28:00,46.7,41.2,28.71,East,79,6.0,0.0,81,0.00,,,0.00,0,WeatherTracker,2013-05-01 11:28:00,
2013-05-01 06:33:00,46.7,41.2,28.73,East,83,10.0,0.0,81,0.00,,,0.00,0,WeatherTracker,2013-05-01 11:33:00,
2013-05-01 06:39:00,46.6,41.1,28.73,ENE,78,12.0,0.0,81,0.00,,,0.00,0,WeatherTracker,2013-05-01 11:39:00,
2013-05-01 06:43:00,46.6,41.1,28.72,East,87,10.0,0.0,81,0.00,,,0.00,0,WeatherTracker,2013-05-01 11:43:00,
2013-05-01 06:49:00,46.5,41.0,28.72,ENE,68,6.0,0.0,81,0.00,,,0.00,5,WeatherTracker,2013-05-01 11:49:00,
2013-05-01 06:54:00,46.4,40.9,28.72,ENE,61,8.0,0.0,81,0.00,,,0.00,7,WeatherTracker,2013-05-01 11:54:00,
2013-05-01 06:59:00,46.4,40.9,28.73,East,80,12.0,0.0,81,0.00,,,0.00,9,WeatherTracker,2013-05-01 11:59:00,
2013-05-01 07:04:00,46.4,41.2,28.73,ENE,59,15.0,0.0,82,0.00,,,0.00,11,WeatherTracker,2013-05-01 12:04:00,
2013-05-01 07:09:00,46.4,41.2,28.73,NE,55,10.0,0.0,82,0.00,,,0.00,16,WeatherTracker,2013-05-01 12:09:00,
2013-05-01 07:14:00,46.3,41.1,28.73,ENE,78,10.0,0.0,82,0.00,,,0.00,25,WeatherTracker,2013-05-01 12:14:00,
2013-05-01 07:19:00,46.3,41.1,28.73,ENE,75,11.0,0.0,82,0.00,,,0.00,58,WeatherTracker,2013-05-01 12:19:00,
2013-05-01 07:24:00,46.3,41.1,28.73,ENE,75,12.0,0.0,82,0.00,,,0.00,72,WeatherTracker,2013-05-01 12:24:00,
2013-05-01 07:29:00,46.4,41.2,28.74,ENE,70,8.0,0.0,82,0.00,,,0.00,25,WeatherTracker,2013-05-01 12:29:00,
2013-05-01 07:34:00,46.4,41.2,28.74,East,82,5.0,0.0,82,0.00,,,0.00,12,WeatherTracker,2013-05-01 12:34:00,
2013-05-01 09:39:00,40.5,38.1,28.85,NNE,28,11.0,0.0,91,0.06,,,0.06,39,WeatherTracker,2013-05-01 14:39:00,
2013-05-01 09:44:00,40.5,38.1,28.85,NNE,22,6.0,0.0,91,0.06,,,0.06,54,WeatherTracker,2013-05-01 14:44:00,
2013-05-01 09:49:00,40.4,38.3,28.85,NE,56,9.0,0.0,92,0.07,,,0.07,74,WeatherTracker,2013-05-01 14:49:00,
2013-05-01 09:54:00,40.4,38.3,28.85,NE,53,12.0,0.0,92,0.07,,,0.07,72,WeatherTracker,2013-05-01 14:54:00,
2013-05-01 09:59:00,40.4,38.3,28.84,East,84,10.0,0.0,92,0.07,,,0.07,56,WeatherTracker,2013-05-01 14:59:00,
2013-05-01 10:04:00,40.3,38.2,28.84,ENE,65,10.0,0.0,92,0.08,,,0.08,62,WeatherTracker,2013-05-01 15:04:00,
2013-05-01 10:09:00,40.2,38.1,28.84,ENE,66,9.0,0.0,92,0.08,,,0.08,83,WeatherTracker,2013-05-01 15:09:00,
2013-05-01 10:14:00,40.3,38.2,28.83,ENE,78,12.0,0.0,92,0.08,,,0.08,67,WeatherTracker,2013-05-01 15:14:00,
2013-05-01 10:19:00,40.3,38.2,28.83,NE,55,11.0,0.0,92,0.08,,,0.08,65,WeatherTracker,2013-05-01 15:19:00,
2013-05-01 10:24:00,40.3,38.4,28.83,ENE,67,13.0,0.0,93,0.08,,,0.08,51,WeatherTracker,2013-05-01 15:24:00,
2013-05-01 10:29:00,40.4,38.5,28.85,ENE,71,9.0,0.0,93,0.08,,,0.08,47,WeatherTracker,2013-05-01 15:29:00,
2013-05-01 10:34:00,40.3,38.2,28.85,ENE,66,7.0,0.0,92,0.08,,,0.08,65,WeatherTracker,2013-05-01 15:34:00,
2013-05-01 10:39:00,40.4,38.3,28.85,East,85,14.0,0.0,92,0.02,,,0.08,62,WeatherTracker,2013-05-01 15:39:00,
2013-05-01 10:44:00,40.3,38.2,28.86,East,81,9.0,0.0,92,0.02,,,0.08,62,WeatherTracker,2013-05-01 15:44:00,
2013-05-01 10:49:00,40.4,38.3,28.86,ENE,74,15.0,0.0,92,0.01,,,0.08,47,WeatherTracker,2013-05-01 15:49:00,
2013-05-01 10:54:00,40.2,38.1,28.86,ENE,75,10.0,0.0,92,0.01,,,0.08,49,WeatherTracker,2013-05-01 15:54:00,
2013-05-01 10:59:00,40.0,37.6,28.86,ENE,69,11.0,0.0,91,0.01,,,0.08,62,WeatherTracker,2013-05-01 15:59:00,
2013-05-01 11:04:00,39.9,37.5,28.86,ENE,57,6.0,0.0,91,0.00,,,0.08,47,WeatherTracker,2013-05-01 16:04:00,
2013-05-01 11:10:00,39.8,37.4,28.86,ENE,67,11.0,0.0,91,0.00,,,0.08,42,WeatherTracker,2013-05-01 16:10:00,
2013-05-01 11:15:00,39.8,37.4,28.88,ENE,75,11.0,0.0,91,0.00,,,0.08,39,WeatherTracker,2013-05-01 16:15:00,
2013-05-01 11:20:00,39.8,37.4,28.88,East,94,11.0,0.0,91,0.00,,,0.08,47,WeatherTracker,2013-05-01 16:20:00,
2013-05-01 11:25:00,39.8,37.4,28.88,ENE,63,9.0,0.0,91,0.00,,,0.08,39,WeatherTracker,2013-05-01 16:25:00,
2013-05-01 11:30:00,39.8,37.4,28.88,ENE,70,5.0,0.0,91,0.00,,,0.08,69,WeatherTracker,2013-05-01 16:30:00,
2013-05-01 11:35:00,39.8,37.4,28.88,ENE,67,10.0,0.0,91,0.00,,,0.08,39,WeatherTracker,2013-05-01 16:35:00,
2013-05-01 11:40:00,39.8,37.4,28.88,ENE,72,11.0,0.0,91,0.00,,,0.08,63,WeatherTracker,2013-05-01 16:40:00,
2013-05-01 11:45:00,39.8,37.4,28.89,ENE,76,5.0,0.0,91,0.00,,,0.08,74,WeatherTracker,2013-05-01 16:45:00,
2013-05-01 11:50:00,39.9,37.5,28.89,NE,34,9.0,0.0,91,0.01,,,0.09,44,WeatherTracker,2013-05-01 16:50:00,
2013-05-01 11:55:00,39.7,37.3,28.89,ENE,64,7.0,0.0,91,0.02,,,0.10,70,WeatherTracker,2013-05-01 16:55:00,
2013-05-01 12:00:00,39.7,37.6,28.89,North,5,11.0,0.0,92,0.03,,,0.11,93,WeatherTracker,2013-05-01 17:00:00,
2013-05-01 12:05:00,39.7,37.6,28.89,NE,55,9.0,0.0,92,0.04,,,0.12,84,WeatherTracker,2013-05-01 17:05:00,
2013-05-01 12:10:00,39.6,37.5,28.89,East,82,9.0,0.0,92,0.04,,,0.12,98,WeatherTracker,2013-05-01 17:10:00,
2013-05-01 12:15:00,39.5,37.4,28.89,East,92,9.0,0.0,92,0.05,,,0.13,67,WeatherTracker,2013-05-01 17:15:00,
2013-05-01 12:20:00,39.2,37.1,28.89,ENE,67,10.0,0.0,92,0.06,,,0.14,69,WeatherTracker,2013-05-01 17:20:00,
2013-05-01 12:25:00,38.9,36.8,28.89,ENE,71,9.0,0.0,92,0.06,,,0.14,98,WeatherTracker,2013-05-01 17:25:00,
2013-05-01 12:30:00,38.8,37.0,28.90,ENE,74,11.0,0.0,93,0.06,,,0.14,67,WeatherTracker,2013-05-01 17:30:00,
2013-05-01 12:35:00,38.4,36.3,28.90,ENE,61,7.0,0.0,92,0.07,,,0.15,74,WeatherTracker,2013-05-01 17:35:00,
2013-05-01 12:40:00,38.2,36.1,28.90,NE,36,6.0,0.0,92,0.07,,,0.15,54,WeatherTracker,2013-05-01 17:40:00,
2013-05-01 12:45:00,37.9,36.1,28.91,NE,45,15.0,0.0,93,0.08,,,0.16,44,WeatherTracker,2013-05-01 17:45:00,
2013-05-01 12:50:00,37.7,35.6,28.91,ENE,78,6.0,0.0,92,0.07,,,0.16,88,WeatherTracker,2013-05-01 17:50:00,
2013-05-01 12:55:00,37.6,35.8,28.91,NE,37,6.0,0.0,93,0.06,,,0.16,69,WeatherTracker,2013-05-01 17:55:00,
2013-05-01 13:00:00,37.6,35.8,28.92,East,80,9.0,0.0,93,0.06,,,0.17,58,WeatherTracker,2013-05-01 18:00:00,
2013-05-01 13:06:00,37.5,35.7,28.92,ENE,75,10.0,0.0,93,0.06,,,0.18,46,WeatherTracker,2013-05-01 18:06:00,
2013-05-01 13:11:00,37.4,35.6,28.92,ENE,60,5.0,0.0,93,0.06,,,0.18,33,WeatherTracker,2013-05-01 18:11:00,
2013-05-01 13:16:00,37.3,35.5,28.93,ENE,63,6.0,0.0,93,0.05,,,0.18,42,WeatherTracker,2013-05-01 18:16:00,
2013-05-01 13:21:00,37.3,35.5,28.93,East,82,11.0,0.0,93,0.04,,,0.18,44,WeatherTracker,2013-05-01 18:21:00,
2013-05-01 13:26:00,37.3,35.5,28.93,ENE,59,9.0,0.0,93,0.04,,,0.18,63,WeatherTracker,2013-05-01 18:26:00,
2013-05-01 13:31:00,37.3,35.5,28.93,ENE,64,10.0,0.0,93,0.04,,,0.18,46,WeatherTracker,2013-05-01 18:31:00,
2013-05-01 13:36:00,37.3,35.5,28.93,NE,35,6.0,0.0,93,0.04,,,0.19,35,WeatherTracker,2013-05-01 18:36:00,
2013-05-01 13:41:00,37.3,35.5,28.93,ENE,62,12.0,0.0,93,0.05,,,0.20,39,WeatherTracker,2013-05-01 18:41:00,
2013-05-01 13:46:00,37.1,35.3,28.93,NE,52,3.0,0.0,93,0.04,,,0.20,42,WeatherTracker,2013-05-01 18:46:00,
2013-05-01 13:51:00,37.0,35.2,28.93,ENE,76,9.0,0.0,93,0.04,,,0.20,63,WeatherTracker,2013-05-01 18:51:00,
2013-05-01 13:56:00,37.0,35.2,28.93,NE,56,12.0,0.0,93,0.03,,,0.20,44,WeatherTracker,2013-05-01 18:56:00,
2013-05-01 14:01:00,36.8,35.0,28.94,ENE,63,10.0,0.0,93,0.04,,,0.21,44,WeatherTracker,2013-05-01 19:01:00,
2013-05-01 14:06:00,36.6,34.8,28.94,ENE,66,9.0,0.0,93,0.03,,,0.21,46,WeatherTracker,2013-05-01 19:06:00,
2013-05-01 14:11:00,36.4,34.6,28.94,NE,45,9.0,0.0,93,0.04,,,0.22,56,WeatherTracker,2013-05-01 19:11:00,
2013-05-01 14:17:00,36.4,34.6,28.95,East,84,4.0,0.0,93,0.04,,,0.22,74,WeatherTracker,2013-05-01 19:17:00,
2013-05-01 14:22:00,36.4,34.6,28.95,ENE,67,6.0,0.0,93,0.04,,,0.22,58,WeatherTracker,2013-05-01 19:22:00,
2013-05-01 14:27:00,36.4,34.6,28.95,NE,46,9.0,0.0,93,0.04,,,0.22,62,WeatherTracker,2013-05-01 19:27:00,
2013-05-01 14:32:00,36.3,34.5,28.95,East,86,11.0,0.0,93,0.04,,,0.22,63,WeatherTracker,2013-05-01 19:32:00,
2013-05-01 14:37:00,36.2,34.4,28.95,ENE,65,11.0,0.0,93,0.04,,,0.23,74,WeatherTracker,2013-05-01 19:37:00,
2013-05-01 14:42:00,36.2,34.4,28.95,NE,51,7.0,0.0,93,0.03,,,0.23,56,WeatherTracker,2013-05-01 19:42:00,
2013-05-01 14:47:00,36.2,34.4,28.95,NE,42,15.0,0.0,93,0.03,,,0.23,35,WeatherTracker,2013-05-01 19:47:00,
2013-05-01 14:52:00,36.1,34.3,28.95,NE,53,9.0,0.0,93,0.03,,,0.23,35,WeatherTracker,2013-05-01 19:52:00,
2013-05-01 14:57:00,36.1,34.3,28.95,ENE,71,13.0,0.0,93,0.03,,,0.23,25,WeatherTracker,2013-05-01 19:57:00,
2013-05-01 15:02:00,36.1,34.3,28.96,ENE,59,12.0,0.0,93,0.02,,,0.23,28,WeatherTracker,2013-05-01 20:02:00,
2013-05-01 15:07:00,36.1,34.3,28.96,ENE,57,9.0,0.0,93,0.04,,,0.25,65,WeatherTracker,2013-05-01 20:07:00,
2013-05-01 15:12:00,36.1,34.3,28.96,NE,48,6.0,0.0,93,0.04,,,0.26,76,WeatherTracker,2013-05-01 20:12:00,
2013-05-01 15:17:00,36.1,34.3,28.98,ENE,76,10.0,0.0,93,0.05,,,0.27,60,WeatherTracker,2013-05-01 20:17:00,
2013-05-01 15:22:00,36.1,34.5,28.98,East,83,12.0,0.0,94,0.06,,,0.28,25,WeatherTracker,2013-05-01 20:22:00,
2013-05-01 15:27:00,36.0,34.4,28.98,ENE,71,6.0,0.0,94,0.06,,,0.28,44,WeatherTracker,2013-05-01 20:27:00,
2013-05-01 15:32:00,36.1,34.5,28.98,ENE,67,6.0,0.0,94,0.06,,,0.28,67,WeatherTracker,2013-05-01 20:32:00,
2013-05-01 15:37:00,36.1,34.5,28.98,NE,34,8.0,0.0,94,0.05,,,0.28,42,WeatherTracker,2013-05-01 20:37:00,
2013-05-01 15:42:00,36.1,34.5,28.98,ENE,57,7.0,0.0,94,0.05,,,0.28,19,WeatherTracker,2013-05-01 20:42:00,
2013-05-01 15:47:00,36.1,34.5,28.98,ENE,68,12.0,0.0,94,0.05,,,0.28,19,WeatherTracker,2013-05-01 20:47:00,
2013-05-01 15:52:00,36.1,34.5,28.98,ENE,65,7.0,0.0,94,0.05,,,0.28,19,WeatherTracker,2013-05-01 20:52:00,
2013-05-01 15:58:00,36.0,34.4,28.98,NNE,29,5.0,0.0,94,0.06,,,0.29,30,WeatherTracker,2013-05-01 20:58:00,
2013-05-01 16:03:00,35.9,34.1,28.99,NNE,32,13.0,0.0,93,0.08,,,0.32,46,WeatherTracker,2013-05-01 21:03:00,
2013-05-01 16:08:00,35.6,33.8,28.99,NE,48,7.0,0.0,93,0.08,,,0.33,37,WeatherTracker,2013-05-01 21:08:00,
2013-05-01 16:13:00,35.5,33.7,28.99,ENE,59,9.0,0.0,93,0.08,,,0.34,54,WeatherTracker,2013-05-01 21:13:00,
2013-05-01 16:18:00,35.5,33.9,29.00,ENE,59,6.0,0.0,94,0.06,,,0.34,37,WeatherTracker,2013-05-01 21:18:00,
2013-05-01 16:23:00,35.5,33.9,29.00,NNE,19,9.0,0.0,94,0.07,,,0.35,23,WeatherTracker,2013-05-01 21:23:00,
2013-05-01 16:28:00,35.5,33.9,29.00,NNE,32,15.0,0.0,94,0.08,,,0.36,32,WeatherTracker,2013-05-01 21:28:00,
2013-05-01 16:33:00,35.4,33.8,29.00,NE,51,10.0,0.0,94,0.08,,,0.36,40,WeatherTracker,2013-05-01 21:33:00,
2013-05-01 16:38:00,35.4,33.8,29.00,ENE,73,7.0,0.0,94,0.09,,,0.37,63,WeatherTracker,2013-05-01 21:38:00,
2013-05-01 16:43:00,35.4,33.8,29.00,ENE,76,11.0,0.0,94,0.10,,,0.38,60,WeatherTracker,2013-05-01 21:43:00,
2013-05-01 16:48:00,35.3,33.7,28.98,ENE,65,16.0,0.0,94,0.10,,,0.38,40,WeatherTracker,2013-05-01 21:48:00,
2013-05-01 16:53:00,35.2,33.6,28.98,NE,49,9.0,0.0,94,0.11,,,0.39,42,WeatherTracker,2013-05-01 21:53:00,
2013-05-01 16:58:00,35.2,33.6,28.98,East,82,5.0,0.0,94,0.09,,,0.39,39,WeatherTracker,2013-05-01 21:58:00,
2013-05-01 17:03:00,35.1,33.6,28.99,ENE,61,9.0,0.0,94,0.08,,,0.40,37,WeatherTracker,2013-05-01 22:03:00,
2013-05-01 17:08:00,35.1,33.6,28.99,NE,45,5.0,0.0,94,0.07,,,0.40,25,WeatherTracker,2013-05-01 22:08:00,
2013-05-01 17:13:00,35.1,33.6,28.99,ENE,69,11.0,0.0,94,0.06,,,0.40,23,WeatherTracker,2013-05-01 22:13:00,
2013-05-01 17:19:00,35.0,33.5,28.99,ENE,60,9.0,0.0,94,0.06,,,0.40,14,WeatherTracker,2013-05-01 22:19:00,
2013-05-01 17:24:00,35.0,33.5,28.99,East,82,7.0,0.0,94,0.06,,,0.41,19,WeatherTracker,2013-05-01 22:24:00,
2013-05-01 19:06:00,33.8,32.3,29.04,North,5,4.0,0.0,94,0.10,,,0.50,0,WeatherTracker,2013-05-02 00:06:00,
2013-05-01 19:11:00,33.6,32.1,29.04,NE,53,3.0,0.0,94,0.10,,,0.50,0,WeatherTracker,2013-05-02 00:11:00,
2013-05-01 19:16:00,33.5,32.0,29.06,East,91,10.0,0.0,94,0.10,,,0.50,0,WeatherTracker,2013-05-02 00:16:00,
2013-05-01 19:21:00,33.4,31.9,29.06,ENE,63,7.0,0.0,94,0.10,,,0.50,0,WeatherTracker,2013-05-02 00:21:00,
2013-05-01 19:26:00,33.3,31.8,29.06,ENE,65,11.0,0.0,94,0.10,,,0.50,0,WeatherTracker,2013-05-02 00:26:00,
2013-05-01 19:31:00,33.2,31.7,29.06,NE,44,4.0,0.0,94,0.10,,,0.50,5,WeatherTracker,2013-05-02 00:31:00,
2013-05-01 19:36:00,33.1,31.8,29.06,ENE,65,11.0,0.0,95,0.10,,,0.50,7,WeatherTracker,2013-05-02 00:36:00,
2013-05-01 19:41:00,33.1,31.8,29.06,ENE,69,17.0,0.0,95,0.10,,,0.50,9,WeatherTracker,2013-05-02 00:41:00,
2013-05-01 19:46:00,33.1,31.8,29.04,NE,53,8.0,0.0,95,0.10,,,0.50,9,WeatherTracker,2013-05-02 00:46:00,
2013-05-01 19:51:00,33.0,31.7,29.04,ENE,60,9.0,0.0,95,0.10,,,0.50,11,WeatherTracker,2013-05-02 00:51:00,
2013-05-01 19:56:00,33.0,31.7,29.04,North,360,11.0,0.0,95,0.10,,,0.50,11,WeatherTracker,2013-05-02 00:56:00,
2013-05-01 20:01:00,33.0,31.7,29.05,East,80,6.0,0.0,95,0.10,,,0.50,5,WeatherTracker,2013-05-02 01:01:00,
2013-05-01 20:06:00,33.1,31.8,29.05,ENE,58,7.0,0.0,95,0.00,,,0.50,0,WeatherTracker,2013-05-02 01:06:00,
2013-05-01 20:11:00,33.2,31.9,29.05,East,80,7.0,0.0,95,0.00,,,0.50,0,WeatherTracker,2013-05-02 01:11:00,
2013-05-01 20:16:00,33.3,32.0,29.06,NE,41,6.0,0.0,95,0.00,,,0.50,0,WeatherTracker,2013-05-02 01:16:00,
2013-05-01 20:21:00,33.4,32.1,29.06,East,83,11.0,0.0,95,0.00,,,0.50,0,WeatherTracker,2013-05-02 01:21:00,
2013-05-01 20:26:00,33.4,32.1,29.06,ENE,65,7.0,0.0,95,0.00,,,0.50,0,WeatherTracker,2013-05-02 01:26:00,
2013-05-01 20:31:00,33.4,32.1,29.06,NE,53,18.0,0.0,95,0.01,,,0.51,0,WeatherTracker,2013-05-02 01:31:00,
2013-05-01 20:36:00,33.4,32.1,29.06,NE,55,7.0,0.0,95,0.01,,,0.51,0,WeatherTracker,2013-05-02 01:36:00,
2013-05-01 20:41:00,33.4,32.4,29.06,NNE,32,17.0,0.0,96,0.01,,,0.51,0,WeatherTracker,2013-05-02 01:41:00,
2013-05-01 20:46:00,33.3,32.3,29.07,NE,52,10.0,0.0,96,0.01,,,0.51,0,WeatherTracker,2013-05-02 01:46:00,
2013-05-01 20:51:00,33.3,32.3,29.07,NE,51,12.0,0.0,96,0.01,,,0.51,0,WeatherTracker,2013-05-02 01:51:00,
2013-05-01 20:56:00,33.3,32.3,29.07,ENE,71,6.0,0.0,96,0.02,,,0.52,0,WeatherTracker,2013-05-02 01:56:00,
2013-05-01 21:01:00,33.3,32.3,29.07,NE,38,12.0,0.0,96,0.02,,,0.52,0,WeatherTracker,2013-05-02 02:01:00,
2013-05-01 21:06:00,33.3,32.3,29.07,ENE,65,10.0,0.0,96,0.02,,,0.52,0,WeatherTracker,2013-05-02 02:06:00,
2013-05-01 21:11:00,33.3,32.3,29.07,NNE,31,9.0,0.0,96,0.03,,,0.53,0,WeatherTracker,2013-05-02 02:11:00,
2013-05-01 21:16:00,33.3,32.3,29.08,East,83,12.0,0.0,96,0.03,,,0.53,0,WeatherTracker,2013-05-02 02:16:00,
2013-05-01 21:22:00,33.2,32.2,29.08,ENE,58,9.0,0.0,96,0.03,,,0.53,0,WeatherTracker,2013-05-02 02:22:00,
2013-05-01 21:27:00,33.2,32.2,29.08,East,86,6.0,0.0,96,0.03,,,0.53,0,WeatherTracker,2013-05-02 02:27:00,
2013-05-01 21:32:00,33.1,32.1,29.08,NE,55,4.0,0.0,96,0.02,,,0.53,0,WeatherTracker,2013-05-02 02:32:00,
2013-05-01 21:37:00,33.1,32.1,29.08,ENE,57,7.0,0.0,96,0.02,,,0.53,0,WeatherTracker,2013-05-02 02:37:00,
2013-05-01 21:42:00,33.1,32.1,29.08,ENE,65,9.0,0.0,96,0.02,,,0.53,0,WeatherTracker,2013-05-02 02:42:00,
2013-05-01 21:47:00,33.1,32.1,29.09,ENE,62,10.0,0.0,96,0.02,,,0.53,0,WeatherTracker,2013-05-02 02:47:00,
2013-05-01 21:52:00,33.0,32.0,29.09,ENE,60,5.0,0.0,96,0.03,,,0.54,0,WeatherTracker,2013-05-02 02:52:00,
2013-05-01 21:57:00,33.0,32.0,29.09,ENE,60,6.0,0.0,96,0.02,,,0.54,0,WeatherTracker,2013-05-02 02:57:00,
2013-05-01 22:02:00,33.0,32.0,29.10,ENE,71,9.0,0.0,96,0.02,,,0.54,0,WeatherTracker,2013-05-02 03:02:00,
2013-05-01 22:07:00,33.0,32.0,29.10,ENE,59,11.0,0.0,96,0.02,,,0.54,0,WeatherTracker,2013-05-02 03:07:00,
2013-05-01 22:12:00,32.9,31.9,29.10,ENE,58,9.0,0.0,96,0.01,,,0.54,0,WeatherTracker,2013-05-02 03:12:00,
2013-05-01 22:17:00,32.9,31.9,29.06,ENE,63,9.0,0.0,96,0.01,,,0.54,0,WeatherTracker,2013-05-02 03:17:00,
2013-05-01 22:22:00,32.8,31.8,29.06,NE,56,6.0,0.0,96,0.01,,,0.54,0,WeatherTracker,2013-05-02 03:22:00,
2013-05-01 22:27:00,32.8,31.8,29.06,NE,53,7.0,0.0,96,0.01,,,0.54,0,WeatherTracker,2013-05-02 03:27:00,
2013-05-01 22:32:00,32.8,31.8,29.10,ENE,60,4.0,0.0,96,0.01,,,0.54,0,WeatherTracker,2013-05-02 03:32:00,
2013-05-01 22:37:00,32.8,31.8,29.10,NE,53,5.0,0.0,96,0.01,,,0.54,0,WeatherTracker,2013-05-02 03:37:00,
2013-05-01 22:43:00,32.8,31.8,29.10,ENE,65,5.0,0.0,96,0.01,,,0.54,0,WeatherTracker,2013-05-02 03:43:00,
2013-05-01 22:48:00,32.8,31.8,29.11,ENE,63,12.0,0.0,96,0.01,,,0.54,0,WeatherTracker,2013-05-02 03:48:00,
2013-05-01 22:52:00,32.8,31.8,29.11,ENE,72,6.0,0.0,96,0.01,,,0.55,0,WeatherTracker,2013-05-02 03:52:00,
2013-05-01 22:58:00,32.8,31.8,29.11,ENE,69,3.0,0.0,96,0.01,,,0.55,0,WeatherTracker,2013-05-02 03:58:00,
2013-05-01 23:01:00,32.8,31.8,29.11,ENE,57,4.0,0.0,96,0.01,,,0.55,0,WeatherTracker,2013-05-02 04:01:00,
2013-05-01 23:02:00,32.8,31.8,29.11,ENE,61,4.0,0.0,96,0.01,,,0.55,0,WeatherTracker,2013-05-02 04:02:00,
2013-05-01 23:07:00,32.8,31.8,29.11,NE,38,4.0,0.0,96,0.01,,,0.55,0,WeatherTracker,2013-05-02 04:07:00,
2013-05-01 23:12:00,32.8,31.8,29.11,NNE,15,4.0,0.0,96,0.01,,,0.55,0,WeatherTracker,2013-05-02 04:12:00,
2013-05-01 23:17:00,32.8,31.8,29.12,ENE,59,7.0,0.0,96,0.01,,,0.55,0,WeatherTracker,2013-05-02 04:17:00,
2013-05-01 23:22:00,32.8,31.8,29.12,ENE,68,4.0,0.0,96,0.01,,,0.55,0,WeatherTracker,2013-05-02 04:22:00,
2013-05-01 23:27:00,32.8,31.8,29.12,NE,38,2.0,0.0,96,0.01,,,0.55,0,WeatherTracker,2013-05-02 04:27:00,
2013-05-01 23:32:00,32.7,31.7,29.12,ENE,61,4.0,0.0,96,0.01,,,0.55,0,WeatherTracker,2013-05-02 04:32:00,
2013-05-01 23:37:00,32.7,31.7,29.12,ENE,63,4.0,0.0,96,0.01,,,0.55,0,WeatherTracker,2013-05-02 04:37:00,
2013-05-01 23:42:00,32.7,31.7,29.12,NE,55,4.0,0.0,96,0.01,,,0.55,0,WeatherTracker,2013-05-02 04:42:00,
2013-05-01 23:47:00,32.7,31.7,29.13,NNE,28,5.0,0.0,96,0.01,,,0.55,0,WeatherTracker,2013-05-02 04:47:00,
2013-05-01 23:52:00,32.7,31.7,29.13,ENE,72,5.0,0.0,96,0.00,,,0.55,0,WeatherTracker,2013-05-02 04:52:00,
2013-05-01 23:57:00,32.8,31.8,29.13,NNE,18,4.0,0.0,96,0.00,,,0.55,0,WeatherTracker,2013-05-02 04:57:00,